| time (UTC) | temp F | wind direction | speed MPH | gust MPH | rain 1hr in | rain 24hr in | rain mn in | humidity % | barometer mb |
| 20260906223009 | 83 | 184 | 0.0 | 8.0 | 0.00 | 0.00 | 0.00 | 17 | 1002.2 |
| 20260906221507 | 83 | 191 | 1.0 | 9.0 | 0.00 | 0.00 | 0.00 | 17 | 1002.5 |
| 20260906220009 | 83 | 132 | 1.0 | 11.0 | 0.00 | 0.00 | 0.00 | 16 | 1002.6 |
| 20260906214505 | 84 | 196 | 0.0 | 11.0 | 0.00 | 0.00 | 0.00 | 16 | 1002.8 |
| 20260906213002 | 84 | 113 | 0.0 | 7.0 | 0.00 | 0.00 | 0.00 | 16 | 1002.7 |
| 20260906211559 | 84 | 237 | 0.0 | 9.0 | 0.00 | 0.00 | 0.00 | 17 | 1003.0 |
| 20260906210058 | 84 | 153 | 1.0 | 13.0 | 0.00 | 0.00 | 0.00 | 17 | 1003.0 |
| 20260906204556 | 84 | 192 | 1.0 | 8.0 | 0.00 | 0.00 | 0.00 | 17 | 1003.2 |
| 20260906203055 | 84 | 136 | 3.0 | 19.0 | 0.00 | 0.00 | 0.00 | 19 | 1003.4 |
| 20260906201554 | 84 | 136 | 1.0 | 8.0 | 0.00 | 0.00 | 0.00 | 18 | 1003.6 |
| 20260906200053 | 83 | 121 | 0.0 | 9.0 | 0.00 | 0.00 | 0.00 | 21 | 1003.8 |
| 20260906194547 | 82 | 134 | 0.0 | 9.0 | 0.00 | 0.00 | 0.00 | 22 | 1004.0 |
| 20260906193043 | 81 | 128 | 0.0 | 4.0 | 0.00 | 0.00 | 0.00 | 24 | 1004.4 |
| 20260906191545 | 80 | 153 | 0.0 | 6.0 | 0.00 | 0.00 | 0.00 | 25 | 1004.8 |
| 20260906190036 | 80 | 173 | 0.0 | 7.0 | 0.00 | 0.00 | 0.00 | 26 | 1005.2 |
| 20260906184532 | 79 | 157 | 0.0 | 3.0 | 0.00 | 0.00 | 0.00 | 28 | 1005.7 |
| 20260906183034 | 77 | 162 | 0.0 | 2.0 | 0.00 | 0.00 | 0.00 | 30 | 1006.0 |
| 20260906181525 | 77 | 146 | 0.0 | 11.0 | 0.00 | 0.00 | 0.00 | 31 | 1006.3 |
| 20260906180020 | 76 | 134 | 0.0 | 6.0 | 0.00 | 0.00 | 0.00 | 32 | 1006.8 |
| 20260906174517 | 75 | 105 | 0.0 | 9.0 | 0.00 | 0.00 | 0.00 | 34 | 1007.1 |
| 20260906173012 | 75 | 153 | 0.0 | 2.0 | 0.00 | 0.00 | 0.00 | 34 | 1007.5 |
| 20260906171508 | 73 | 174 | 0.0 | 1.0 | 0.00 | 0.00 | 0.00 | 37 | 1007.8 |
| 20260906170005 | 73 | 146 | 0.0 | 1.0 | 0.00 | 0.00 | 0.00 | 36 | 1008.0 |
| 20260906164501 | 72 | 136 | 0.0 | 1.0 | 0.00 | 0.00 | 0.00 | 38 | 1008.1 |
| 20260906163121 | 72 | 113 | 0.0 | 0.0 | 0.00 | 0.00 | 0.00 | 40 | 1008.2 |
| 20260906161554 | 70 | 171 | 0.0 | 0.0 | 0.00 | 0.00 | 0.00 | 42 | 1008.4 |
| 20260906160049 | 68 | 77 | 0.0 | 0.0 | 0.00 | 0.00 | 0.00 | 43 | 1008.7 |
| 20260906154545 | 68 | 199 | 0.0 | 0.0 | 0.00 | 0.00 | 0.00 | 42 | 1008.9 |
| 20260906153046 | 66 | 200 | 0.0 | 0.0 | 0.00 | 0.00 | 0.00 | 46 | 1009.1 |
| 20260906151536 | 64 | 204 | 0.0 | 0.0 | 0.00 | 0.00 | 0.00 | 43 | 1009.3 |
| 20260906150031 | 61 | 226 | 0.0 | 0.0 | 0.00 | 0.00 | 0.00 | 47 | 1009.5 |
| 20260906144527 | 59 | 203 | 0.0 | 0.0 | 0.00 | 0.00 | 0.00 | 51 | 1009.6 |
| 20260906143022 | 57 | 214 | 0.0 | 1.0 | 0.00 | 0.00 | 0.00 | 52 | 1009.8 |
| 20260906141518 | 55 | 180 | 0.0 | 0.0 | 0.00 | 0.00 | 0.00 | 55 | 1009.9 |
| 20260906140015 | 52 | 213 | 0.0 | 0.0 | 0.00 | 0.00 | 0.00 | 61 | 1010.0 |
| 20260906134513 | 50 | 225 | 0.0 | 0.0 | 0.00 | 0.00 | 0.00 | 65 | 1010.2 |
| 20260906133132 | 48 | 209 | 0.0 | 0.0 | 0.00 | 0.00 | 0.00 | 67 | 1010.1 |
| 20260906131517 | 48 | 211 | 0.0 | 0.0 | 0.00 | 0.00 | 0.00 | 68 | 1010.2 |
| 20260906130006 | 48 | 210 | 0.0 | 1.0 | 0.00 | 0.00 | 0.00 | 67 | 1010.1 |
| 20260906124510 | 49 | 192 | 0.0 | 1.0 | 0.00 | 0.00 | 0.00 | 64 | 1010.1 |
| 20260906123006 | 48 | 180 | 0.0 | 2.0 | 0.00 | 0.00 | 0.00 | 67 | 1010.0 |
| 20260906121603 | 48 | 205 | 0.0 | 0.0 | 0.00 | 0.00 | 0.00 | 67 | 1010.1 |
| 20260906120002 | 48 | 222 | 0.0 | 0.0 | 0.00 | 0.00 | 0.00 | 67 | 1010.3 |
| 20260906114600 | 49 | 225 | 0.0 | 0.0 | 0.00 | 0.00 | 0.00 | 66 | 1010.2 |
| 20260906113058 | 49 | 209 | 0.0 | 0.0 | 0.00 | 0.00 | 0.00 | 65 | 1010.3 |
| 20260906111556 | 49 | 234 | 0.0 | 0.0 | 0.00 | 0.00 | 0.00 | 64 | 1010.2 |
| 20260906110053 | 50 | 230 | 0.0 | 2.0 | 0.00 | 0.00 | 0.00 | 64 | 1010.1 |
| 20260906104552 | 51 | 222 | 0.0 | 0.0 | 0.00 | 0.00 | 0.00 | 62 | 1010.2 |
| 20260906103051 | 50 | 202 | 0.0 | 1.0 | 0.00 | 0.00 | 0.00 | 62 | 1010.2 |
| 20260906101555 | 51 | 227 | 0.0 | 0.0 | 0.00 | 0.00 | 0.00 | 62 | 1009.9 |
| 20260906100046 | 51 | 217 | 0.0 | 1.0 | 0.00 | 0.00 | 0.00 | 62 | 1009.8 |
| 20260906094545 | 51 | 220 | 0.0 | 3.0 | 0.00 | 0.00 | 0.00 | 61 | 1009.6 |
| 20260906093053 | 51 | 230 | 0.0 | 2.0 | 0.00 | 0.00 | 0.00 | 61 | 1009.4 |
| 20260906091540 | 53 | 228 | 0.0 | 2.0 | 0.00 | 0.00 | 0.00 | 59 | 1009.4 |
| 20260906090039 | 52 | 199 | 0.0 | 1.0 | 0.00 | 0.00 | 0.00 | 59 | 1009.4 |
| 20260906084548 | 52 | 202 | 0.0 | 8.0 | 0.00 | 0.00 | 0.00 | 60 | 1009.5 |
| 20260906083037 | 52 | 218 | 0.0 | 2.0 | 0.00 | 0.00 | 0.00 | 60 | 1009.3 |
| 20260906081537 | 52 | 200 | 0.0 | 2.0 | 0.00 | 0.00 | 0.00 | 60 | 1009.1 |
| 20260906080049 | 52 | 215 | 0.0 | 2.0 | 0.00 | 0.00 | 0.00 | 60 | 1009.5 |
| 20260906074535 | 52 | 217 | 0.0 | 4.0 | 0.00 | 0.00 | 0.00 | 61 | 1009.4 |
| 20260906073033 | 52 | 188 | 0.0 | 2.0 | 0.00 | 0.00 | 0.00 | 60 | 1009.3 |
| 20260906071534 | 53 | 195 | 0.0 | 1.0 | 0.00 | 0.00 | 0.00 | 61 | 1009.1 |
| 20260906070032 | 52 | 207 | 0.0 | 2.0 | 0.00 | 0.00 | 0.00 | 62 | 1009.3 |
| 20260906064535 | 52 | 217 | 0.0 | 1.0 | 0.00 | 0.00 | 0.00 | 61 | 1009.1 |
| 20260906063030 | 53 | 205 | 0.0 | 4.0 | 0.00 | 0.00 | 0.00 | 60 | 1009.1 |
| 20260906061531 | 53 | 208 | 0.0 | 1.0 | 0.00 | 0.00 | 0.00 | 60 | 1009.0 |
| 20260906060027 | 53 | 213 | 0.0 | 3.0 | 0.00 | 0.00 | 0.00 | 60 | 1009.0 |
| 20260906054524 | 54 | 204 | 0.0 | 0.0 | 0.00 | 0.00 | 0.00 | 58 | 1009.0 |
| 20260906053023 | 55 | 219 | 0.0 | 3.0 | 0.00 | 0.00 | 0.00 | 58 | 1008.9 |
| 20260906051522 | 55 | 221 | 0.0 | 0.0 | 0.00 | 0.00 | 0.00 | 59 | 1008.9 |
| 20260906050021 | 55 | 202 | 0.0 | 2.0 | 0.00 | 0.00 | 0.00 | 59 | 1008.9 |
| 20260906044521 | 55 | 208 | 0.0 | 0.0 | 0.00 | 0.00 | 0.00 | 59 | 1008.7 |
| 20260906043018 | 55 | 196 | 0.0 | 2.0 | 0.00 | 0.00 | 0.00 | 59 | 1008.6 |
| 20260906041517 | 57 | 198 | 0.0 | 4.0 | 0.00 | 0.00 | 0.00 | 56 | 1008.4 |
| 20260906040016 | 58 | 195 | 0.0 | 0.0 | 0.00 | 0.00 | 0.00 | 56 | 1008.4 |
| 20260906034524 | 59 | 94 | 0.0 | 0.0 | 0.00 | 0.00 | 0.00 | 56 | 1008.4 |
| 20260906033018 | 60 | 37 | 0.0 | 0.0 | 0.00 | 0.00 | 0.00 | 57 | 1008.3 |
| 20260906031513 | 61 | 37 | 0.0 | 0.0 | 0.00 | 0.00 | 0.00 | 53 | 1008.1 |
| 20260906030012 | 62 | 37 | 0.0 | 0.0 | 0.00 | 0.00 | 0.00 | 51 | 1008.0 |
| 20260906024511 | 63 | 37 | 0.0 | 0.0 | 0.00 | 0.00 | 0.00 | 52 | 1007.7 |
| 20260906023012 | 65 | 37 | 0.0 | 0.0 | 0.00 | 0.00 | 0.00 | 47 | 1007.6 |
| 20260906021516 | 66 | 37 | 0.0 | 0.0 | 0.00 | 0.00 | 0.00 | 45 | 1007.2 |
| 20260906020010 | 68 | 37 | 0.0 | 0.0 | 0.00 | 0.00 | 0.00 | 42 | 1006.9 |
| 20260906014519 | 69 | 26 | 0.0 | 1.0 | 0.00 | 0.00 | 0.00 | 39 | 1006.8 |
| 20260906013010 | 71 | 12 | 0.0 | 1.0 | 0.00 | 0.00 | 0.00 | 38 | 1006.7 |
| 20260906011509 | 72 | 11 | 0.0 | 1.0 | 0.00 | 0.00 | 0.00 | 37 | 1006.7 |
| 20260906010009 | 75 | 342 | 0.0 | 4.0 | 0.00 | 0.00 | 0.00 | 33 | 1006.5 |
| 20260906004507 | 76 | 5 | 0.0 | 0.0 | 0.00 | 0.00 | 0.00 | 30 | 1006.4 |
| 20260906003007 | 77 | 24 | 0.0 | 1.0 | 0.00 | 0.00 | 0.00 | 29 | 1006.2 |
| 20260906001505 | 77 | 63 | 0.0 | 0.0 | 0.00 | 0.00 | 0.00 | 29 | 1006.2 |
| 20260906000005 | 78 | 51 | 0.0 | 1.0 | 0.00 | 0.00 | 0.00 | 30 | 1006.1 |
| 20260905234504 | 78 | 44 | 0.0 | 7.0 | 0.00 | 0.00 | 0.00 | 29 | 1006.1 |
| 20260905233004 | 78 | 63 | 0.0 | 8.0 | 0.00 | 0.00 | 0.00 | 28 | 1006.0 |
| 20260905231503 | 77 | 24 | 0.0 | 1.0 | 0.00 | 0.00 | 0.00 | 28 | 1005.9 |
| 20260905230002 | 78 | 63 | 0.0 | 1.0 | 0.00 | 0.00 | 0.00 | 28 | 1005.9 |
| 20260905224506 | 77 | 26 | 0.0 | 2.0 | 0.00 | 0.00 | 0.00 | 30 | 1005.9 |